This demonstration page uses our WeatherBlox Daily Observations layout. Learn more.

Left ArrowRight Arrow

Hourly Observations for October 31, 2018

Temp ( °F °C ) Dew Point ( °F °C ) Humidity (%) Winds ( mph kmh ) Pressure ( in mb ) Visibility ( mi km ) Precip ( " mm )
12:53 am 00:53 Cloudy 63 17.2 49 9.4 60 60 VRB 3 6 29.94 1014 10 16 0.00 0.00
1:53 am 01:53 Cloudy 63 17.2 51 10.6 65 65 VRB 6 9 29.94 1014 10 16 0.00 0.00
2:53 am 02:53 Mostly Cloudy 62 16.7 52 11.1 70 70 S 5 7 29.93 1014 10 16 0.00 0.00
3:53 am 03:53 Cloudy 62 16.7 53 11.7 73 73 Calm 29.91 1013 10 16 0.00 0.00
4:53 am 04:53 Cloudy 63 17.2 54 12.2 73 73 SSW 6 9 29.91 1013 10 16 0.00 0.00
5:53 am 05:53 Mostly Clear 62 16.7 54 12.2 75 75 SW 7 11 29.90 1013 10 16 0.00 0.00
6:53 am 06:53 Mostly Cloudy 63 17.2 54 12.2 73 73 SSW 9 15 29.90 1012 10 16 0.00 0.00
7:53 am 07:53 Cloudy 63 17.2 55 12.8 76 76 SW 8 13 29.89 1012 10 16 0.00 0.00
8:53 am 08:53 Cloudy 64 17.8 56 13.3 75 75 SSW 8 13 29.89 1012 10 16 0.00 0.00
9:53 am 09:53 Mostly Cloudy 66 18.9 56 13.3 70 70 SSW 10 17 29.90 1012 10 16 0.00 0.00
10:46 am 10:46 Cloudy with Light Rain 65 18.3 57 13.9 76 76 WSW 12 19 29.91 1013 10 16 0.00 0.03
10:53 am 10:53 Cloudy with Light Rain 64 17.8 57 13.9 78 78 SW 9 15 29.91 1013 3 4 0.03 0.76
10:56 am 10:56 Cloudy with Heavy Rain 63 17.2 58 14.4 84 84 SW 13 20 29.91 1013 2 2 0.02 0.51
11:15 am 11:15 Cloudy with Heavy Rain 61 16.1 59 15 93 93 SW 7 11 29.91 1013 1 2 0.11 2.79
11:22 am 11:22 Cloudy with Rain 61 16.1 59 15 93 93 SW 5 7 29.91 1013 2 3 0.12 3.05
11:30 am 11:30 Cloudy with Light Rain 62 16.7 59 15 90 90 SW 6 9 29.91 1013 4 6 0.12 3.05
11:53 am 11:53 Cloudy with Rain 62 16.7 60 15.6 93 93 VRB 7 11 29.91 1013 3 4 0.15 3.81
12:01 pm 12:01 Cloudy with Light Rain 62 16.7 60 15.6 93 93 SW 8 13 29.91 1013 3 5 0.01 0.25
12:53 pm 12:53 Cloudy with Rain 62 16.7 60 15.6 93 93 VRB 5 7 29.90 1013 3 4 0.07 1.78
1:09 pm 13:09 Cloudy with Light Rain 62 16.7 60 15.6 93 93 SW 6 9 29.91 1013 5 8 0.02 0.51
1:53 pm 13:53 Cloudy with Light Rain 63 17.2 61 16.1 93 93 VRB 5 7 29.88 1012 6 10 0.05 1.27
2:50 pm 14:50 Cloudy with Rain 63 17 61 16 94 94 WSW 6 9 29.88 1012 2 2 0.03 0.76
2:53 pm 14:53 Cloudy with Heavy Rain 63 17.2 61 16.1 93 93 WSW 7 11 29.88 1012 1 2 0.06 1.52
3:01 pm 15:01 Cloudy with Heavy Rain 62 16.7 61 16.1 96 96 WSW 6 9 29.88 1012 1 1 0.05 1.27
3:11 pm 15:11 Cloudy with Light Rain 63 17.2 61 16.1 93 93 SW 3 6 29.88 1012 2 3 0.07 1.78
3:20 pm 15:20 Cloudy with Light Rain 63 17.2 61 16.1 93 93 Calm 29.88 1012 4 6 0.07 1.78
3:42 pm 15:42 Cloudy with Mist and Fog 63 17.2 62 16.7 97 97 Calm 29.88 1012 6 10 0.07 1.78
3:53 pm 15:53 Cloudy 63 17.2 62 16.7 97 97 VRB 6 9 29.87 1011 7 11 0.07 1.78
4:53 pm 16:53 Cloudy 64 17.8 62 16.7 93 93 VRB 3 6 29.86 1011 8 13 0.00 0.00
5:44 pm 17:44 Cloudy 64 17.8 62 16.7 93 93 Calm 29.88 1012 7 11 0.00 0.00
5:53 pm 17:53 Cloudy 64 17.8 62 16.7 93 93 SSW 3 6 29.87 1011 7 11 0.00 0.00
6:15 pm 18:15 Cloudy with Mist and Fog 64 17.8 62 16.7 93 93 SW 3 6 29.88 1012 5 8 0.00 0.00
6:28 pm 18:28 Cloudy with Light Rain 62 16.7 60 15.6 93 93 undefined N/A 29.88 1012 4 6 0.00 0.03
6:53 pm 18:53 Cloudy with Light Rain 59 15 57 13.9 93 93 N 12 19 29.89 1012 6 10 0.01 0.25
7:38 pm 19:38 Cloudy 58 14.4 56 13.3 93 93 Calm 29.91 1013 10 16 0.01 0.25
7:53 pm 19:53 Cloudy with Light Rain 57 13.9 55 12.8 93 93 NNE 9 15 29.91 1013 8 13 0.02 0.51
8:07 pm 20:07 Cloudy with Heavy Rain 56 13.3 54 12.2 93 93 NNE 8 13 29.91 1013 2 3 0.09 2.29
8:24 pm 20:24 Cloudy with Light Rain 56 13.3 54 12.2 93 93 VRB 3 6 29.91 1013 6 10 0.13 3.30
8:34 pm 20:34 Cloudy with Light Rain 56 13.3 54 12.2 93 93 NNE 3 6 29.91 1013 10 16 0.13 3.30
8:53 pm 20:53 Cloudy with Light Rain 56 13.3 54 12.2 93 93 VRB 5 7 29.91 1013 10 16 0.13 3.30
9:02 pm 21:02 Cloudy 56 13.3 54 12.2 93 93 NE 6 9 29.91 1013 10 16 0.00 0.03
9:10 pm 21:10 Cloudy with Light Rain 56 13.3 54 12.2 93 93 N 3 6 29.91 1013 10 16 0.00 0.03
9:30 pm 21:30 Cloudy with Light Rain 56 13.3 53 11.7 90 90 N 6 9 29.91 1013 10 16 0.00 0.03
9:53 pm 21:53 Cloudy 55 12.8 53 11.7 93 93 NE 6 9 29.91 1013 10 16 0.01 0.25
10:53 pm 22:53 Cloudy 55 12.8 53 11.7 93 93 N 3 6 29.91 1013 8 13 0.00 0.00
11:53 pm 23:53 Cloudy 55 12.8 53 11.7 93 93 Calm 29.88 1012 7 11 0.02 0.51

Powered by AerisWeather